User: anonymous   Login
Location: La Tine
(46.4708°N, 7.0525°E)
Time: 12:31:04
(UTC+00:00)
Language:

CZ-2C R/B - Orbit

View from above orbital plane
View from above orbital plane
View from above satellite
View from above satellite

Ground track
Ground track

The orbit data is extracted from the following two-line orbital elements,

1 31114U 07010B   21163.11359667  .00000055  00000-0  44528-4 0  9996
2 31114  98.2330 357.2034 0058624 298.9858  60.5451 14.19365997734037
Epoch (UTC): 12 June 2021 02:43:34
Eccentricity: 0.0058624
inclination: 98.2330°
perigee height: 785 km
apogee height: 870 km
right ascension of ascending node: 357.2034°
argument of perigee: 298.9858°
revolutions per day: 14.19365997
mean anomaly at epoch: 60.5451°
orbit number at epoch: 73403

The dashed part of the orbit path shows where the satellite is in the earth's shadow,  

DLR